Time,TemperatureF,DewpointF,PressureIn,WindDirection,WindDirectionDegrees,WindSpeedMPH,WindSpeedGustMPH,Humidity,HourlyPrecipIn,Conditions,Clouds,dailyrainin,SoftwareType,DateUTC
2013-10-30 00:00:00,62.9,60.8,30.16,SSW,204,0.0,0.0,93,0.00,,,0.02,Wunderground v.1.15,2013-10-30 05:00:00,
2013-10-30 00:06:00,63.0,60.9,30.16,SSW,204,0.0,0.0,93,0.00,,,0.00,Wunderground v.1.15,2013-10-30 05:06:00,
2013-10-30 00:12:00,63.0,60.9,30.16,SSW,204,0.0,0.0,93,0.00,,,0.00,Wunderground v.1.15,2013-10-30 05:12:00,
2013-10-30 00:17:00,63.1,61.3,30.17,SSW,204,0.0,0.0,94,0.00,,,0.00,Wunderground v.1.15,2013-10-30 05:17:00,
2013-10-30 00:23:00,63.1,61.0,30.17,SSW,204,0.0,0.0,93,0.00,,,0.00,Wunderground v.1.15,2013-10-30 05:23:00,
2013-10-30 00:28:00,63.1,61.0,30.17,SSW,204,0.0,0.0,93,0.00,,,0.00,Wunderground v.1.15,2013-10-30 05:28:00,
2013-10-30 00:34:00,63.0,60.9,30.17,SSW,204,0.0,0.0,93,0.00,,,0.00,Wunderground v.1.15,2013-10-30 05:34:00,
2013-10-30 00:40:00,62.9,60.8,30.17,SSW,204,0.0,0.0,93,0.00,,,0.00,Wunderground v.1.15,2013-10-30 05:40:00,
2013-10-30 00:46:00,62.8,60.7,30.17,SSW,204,0.0,0.0,93,0.00,,,0.00,Wunderground v.1.15,2013-10-30 05:46:00,
2013-10-30 00:51:00,62.9,60.8,30.17,SSW,204,0.0,1.0,93,0.00,,,0.00,Wunderground v.1.15,2013-10-30 05:51:00,
2013-10-30 00:57:00,62.9,60.8,30.17,SSW,204,0.0,1.0,93,0.00,,,0.00,Wunderground v.1.15,2013-10-30 05:57:00,
2013-10-30 01:02:00,63.0,60.9,30.17,SW,214,0.0,1.0,93,0.00,,,0.00,Wunderground v.1.15,2013-10-30 06:02:00,
2013-10-30 01:07:00,63.1,61.0,30.17,SW,214,0.0,1.0,93,0.00,,,0.00,Wunderground v.1.15,2013-10-30 06:07:00,
2013-10-30 01:12:00,63.2,61.1,30.17,SW,214,0.0,0.0,93,0.00,,,0.00,Wunderground v.1.15,2013-10-30 06:12:00,
2013-10-30 01:17:00,63.2,61.1,30.17,SW,214,0.0,0.0,93,0.00,,,0.00,Wunderground v.1.15,2013-10-30 06:17:00,
2013-10-30 01:22:00,63.2,60.8,30.17,SW,214,0.0,0.0,92,0.00,,,0.00,Wunderground v.1.15,2013-10-30 06:22:00,
2013-10-30 01:28:00,63.2,61.1,30.17,SW,214,0.0,0.0,93,0.00,,,0.00,Wunderground v.1.15,2013-10-30 06:28:00,
2013-10-30 01:33:00,63.1,61.0,30.17,SW,214,0.0,0.0,93,0.00,,,0.00,Wunderground v.1.15,2013-10-30 06:33:00,
2013-10-30 01:39:00,63.1,61.0,30.18,SW,214,0.0,0.0,93,0.00,,,0.00,Wunderground v.1.15,2013-10-30 06:39:00,
2013-10-30 01:45:00,63.1,61.0,30.18,SW,214,0.0,0.0,93,0.00,,,0.00,Wunderground v.1.15,2013-10-30 06:45:00,
2013-10-30 01:51:00,63.2,61.1,30.18,SW,215,0.0,0.0,93,0.00,,,0.00,Wunderground v.1.15,2013-10-30 06:51:00,
2013-10-30 01:57:00,63.5,61.1,30.17,SW,215,0.0,0.0,92,0.00,,,0.00,Wunderground v.1.15,2013-10-30 06:57:00,
2013-10-30 02:02:00,63.6,60.9,30.17,SW,215,0.0,0.0,91,0.00,,,0.00,Wunderground v.1.15,2013-10-30 07:02:00,
2013-10-30 02:07:00,63.6,60.9,30.17,SW,215,0.0,0.0,91,0.00,,,0.00,Wunderground v.1.15,2013-10-30 07:07:00,
2013-10-30 02:12:00,63.5,60.8,30.17,SSW,213,0.0,0.0,91,0.00,,,0.00,Wunderground v.1.15,2013-10-30 07:12:00,
2013-10-30 02:17:00,63.6,60.9,30.17,SSW,213,0.0,0.0,91,0.00,,,0.00,Wunderground v.1.15,2013-10-30 07:17:00,
2013-10-30 02:22:00,63.6,60.9,30.17,SSW,213,0.0,0.0,91,0.00,,,0.00,Wunderground v.1.15,2013-10-30 07:22:00,
2013-10-30 02:28:00,63.5,60.8,30.17,SSW,213,0.0,0.0,91,0.00,,,0.00,Wunderground v.1.15,2013-10-30 07:28:00,
2013-10-30 02:34:00,63.5,60.8,30.17,SSW,213,0.0,1.0,91,0.00,,,0.00,Wunderground v.1.15,2013-10-30 07:34:00,
2013-10-30 02:40:00,63.6,60.9,30.17,SSW,198,0.0,1.0,91,0.00,,,0.00,Wunderground v.1.15,2013-10-30 07:40:00,
2013-10-30 02:45:00,63.6,60.9,30.17,South,190,0.0,0.0,91,0.00,,,0.00,Wunderground v.1.15,2013-10-30 07:45:00,
2013-10-30 02:50:00,63.6,60.9,30.17,South,188,0.0,1.0,91,0.00,,,0.00,Wunderground v.1.15,2013-10-30 07:50:00,
2013-10-30 02:56:00,63.5,60.8,30.18,South,188,0.0,0.0,91,0.00,,,0.00,Wunderground v.1.15,2013-10-30 07:56:00,
2013-10-30 03:01:00,63.4,60.7,30.17,South,188,0.0,1.0,91,0.00,,,0.00,Wunderground v.1.15,2013-10-30 08:01:00,
2013-10-30 03:07:00,63.1,60.4,30.17,ENE,64,0.0,1.0,91,0.00,,,0.00,Wunderground v.1.15,2013-10-30 08:07:00,
2013-10-30 03:12:00,62.9,60.5,30.18,ENE,64,0.0,1.0,92,0.00,,,0.00,Wunderground v.1.15,2013-10-30 08:12:00,
2013-10-30 03:17:00,62.8,60.4,30.17,ENE,64,0.0,1.0,92,0.00,,,0.00,Wunderground v.1.15,2013-10-30 08:17:00,
2013-10-30 03:23:00,62.7,60.3,30.17,ENE,64,0.0,1.0,92,0.00,,,0.00,Wunderground v.1.15,2013-10-30 08:23:00,
2013-10-30 03:28:00,62.6,60.2,30.17,ENE,64,0.0,1.0,92,0.00,,,0.00,Wunderground v.1.15,2013-10-30 08:28:00,
2013-10-30 03:33:00,62.5,60.1,30.17,ENE,64,0.0,2.0,92,0.00,,,0.00,Wunderground v.1.15,2013-10-30 08:33:00,
2013-10-30 03:38:00,62.4,60.3,30.17,NE,49,1.0,2.0,93,0.00,,,0.00,Wunderground v.1.15,2013-10-30 08:38:00,
2013-10-30 03:43:00,62.3,60.2,30.17,NE,49,1.0,1.0,93,0.00,,,0.00,Wunderground v.1.15,2013-10-30 08:43:00,
2013-10-30 03:48:00,62.3,60.2,30.17,NE,50,0.0,1.0,93,0.00,,,0.00,Wunderground v.1.15,2013-10-30 08:48:00,
2013-10-30 03:53:00,62.2,60.2,30.17,NE,50,0.0,1.0,93,0.00,,,0.00,Wunderground v.1.15,2013-10-30 08:53:00,
2013-10-30 03:58:00,62.2,60.2,30.17,NE,50,0.0,1.0,93,0.00,,,0.00,Wunderground v.1.15,2013-10-30 08:58:00,
2013-10-30 04:04:00,62.1,60.1,30.17,NE,50,0.0,1.0,93,0.00,,,0.00,Wunderground v.1.15,2013-10-30 09:04:00,
2013-10-30 04:10:00,62.1,60.1,30.17,NE,50,0.0,1.0,93,0.00,,,0.00,Wunderground v.1.15,2013-10-30 09:10:00,
2013-10-30 04:15:00,62.1,60.1,30.17,NE,50,0.0,1.0,93,0.00,,,0.00,Wunderground v.1.15,2013-10-30 09:15:00,
2013-10-30 04:21:00,62.0,60.0,30.17,NE,50,0.0,0.0,93,0.00,,,0.00,Wunderground v.1.15,2013-10-30 09:21:00,
2013-10-30 04:26:00,62.0,60.0,30.17,NE,50,0.0,0.0,93,0.00,,,0.00,Wunderground v.1.15,2013-10-30 09:26:00,
2013-10-30 04:31:00,62.0,60.3,30.17,ESE,111,0.0,0.0,94,0.00,,,0.00,Wunderground v.1.15,2013-10-30 09:31:00,
2013-10-30 04:36:00,62.1,60.4,30.17,ESE,111,0.0,1.0,94,0.00,,,0.00,Wunderground v.1.15,2013-10-30 09:36:00,
2013-10-30 04:42:00,62.1,60.1,30.17,ESE,111,0.0,0.0,93,0.00,,,0.00,Wunderground v.1.15,2013-10-30 09:42:00,
2013-10-30 04:47:00,62.2,60.2,30.18,SSW,200,0.0,1.0,93,0.00,,,0.00,Wunderground v.1.15,2013-10-30 09:47:00,
2013-10-30 04:53:00,62.3,60.2,30.18,SSW,200,0.0,0.0,93,0.00,,,0.00,Wunderground v.1.15,2013-10-30 09:53:00,
2013-10-30 04:59:00,62.4,60.3,30.17,SSW,204,0.0,1.0,93,0.00,,,0.00,Wunderground v.1.15,2013-10-30 09:59:00,
2013-10-30 05:04:00,62.4,60.3,30.17,SSW,204,0.0,1.0,93,0.00,,,0.00,Wunderground v.1.15,2013-10-30 10:04:00,
2013-10-30 05:09:00,62.4,60.3,30.17,SSW,202,0.0,1.0,93,0.00,,,0.00,Wunderground v.1.15,2013-10-30 10:09:00,
2013-10-30 05:15:00,62.4,60.0,30.18,SSW,202,0.0,1.0,92,0.00,,,0.00,Wunderground v.1.15,2013-10-30 10:15:00,
2013-10-30 05:21:00,62.4,60.3,30.17,SSW,202,0.0,1.0,93,0.00,,,0.00,Wunderground v.1.15,2013-10-30 10:21:00,
2013-10-30 05:26:00,62.5,60.4,30.18,SW,221,0.0,2.0,93,0.00,,,0.00,Wunderground v.1.15,2013-10-30 10:26:00,
2013-10-30 05:31:00,62.5,60.1,30.18,SW,221,0.0,1.0,92,0.00,,,0.00,Wunderground v.1.15,2013-10-30 10:31:00,
2013-10-30 05:36:00,62.6,60.2,30.18,SW,235,0.0,1.0,92,0.00,,,0.00,Wunderground v.1.15,2013-10-30 10:36:00,
2013-10-30 05:41:00,62.8,60.4,30.18,SW,225,1.0,2.0,92,0.00,,,0.00,Wunderground v.1.15,2013-10-30 10:41:00,
2013-10-30 05:46:00,62.9,60.5,30.17,SSW,199,1.0,2.0,92,0.00,,,0.00,Wunderground v.1.15,2013-10-30 10:46:00,
2013-10-30 05:52:00,62.9,60.2,30.17,SSW,211,1.0,1.0,91,0.00,,,0.00,Wunderground v.1.15,2013-10-30 10:52:00,
2013-10-30 05:58:00,62.9,60.5,30.18,SSW,211,1.0,1.0,92,0.00,,,0.00,Wunderground v.1.15,2013-10-30 10:58:00,
2013-10-30 06:04:00,62.8,60.4,30.18,SSW,213,0.0,2.0,92,0.00,,,0.00,Wunderground v.1.15,2013-10-30 11:04:00,
2013-10-30 06:09:00,62.8,60.4,30.17,SW,219,1.0,2.0,92,0.00,,,0.00,Wunderground v.1.15,2013-10-30 11:09:00,
2013-10-30 06:14:00,62.8,60.4,30.17,SW,222,2.0,3.0,92,0.00,,,0.00,Wunderground v.1.15,2013-10-30 11:14:00,
2013-10-30 06:19:00,62.7,60.3,30.17,SSW,211,1.0,1.0,92,0.00,,,0.00,Wunderground v.1.15,2013-10-30 11:19:00,
2013-10-30 06:25:00,62.5,60.1,30.18,SSW,213,1.0,2.0,92,0.00,,,0.00,Wunderground v.1.15,2013-10-30 11:25:00,
2013-10-30 06:31:00,62.5,60.1,30.18,SW,236,1.0,3.0,92,0.00,,,0.00,Wunderground v.1.15,2013-10-30 11:31:00,
2013-10-30 06:36:00,62.5,60.1,30.18,SW,236,2.0,3.0,92,0.00,,,0.00,Wunderground v.1.15,2013-10-30 11:36:00,
2013-10-30 06:41:00,62.6,60.2,30.18,SSW,208,3.0,3.0,92,0.00,,,0.00,Wunderground v.1.15,2013-10-30 11:41:00,
2013-10-30 06:46:00,62.6,60.2,30.18,SW,216,3.0,4.0,92,0.00,,,0.00,Wunderground v.1.15,2013-10-30 11:46:00,
2013-10-30 06:52:00,62.5,60.1,30.18,SW,226,3.0,4.0,92,0.00,,,0.00,Wunderground v.1.15,2013-10-30 11:52:00,
2013-10-30 06:57:00,62.5,60.1,30.18,WSW,246,2.0,4.0,92,0.00,,,0.00,Wunderground v.1.15,2013-10-30 11:57:00,
2013-10-30 07:02:00,62.5,60.1,30.18,WSW,246,2.0,3.0,92,0.00,,,0.00,Wunderground v.1.15,2013-10-30 12:02:00,
2013-10-30 07:07:00,62.4,60.0,30.18,WSW,240,1.0,3.0,92,0.00,,,0.00,Wunderground v.1.15,2013-10-30 12:07:00,
2013-10-30 07:13:00,62.2,59.8,30.18,SW,231,1.0,4.0,92,0.00,,,0.00,Wunderground v.1.15,2013-10-30 12:13:00,
2013-10-30 07:18:00,62.2,59.8,30.18,SW,228,2.0,4.0,92,0.00,,,0.00,Wunderground v.1.15,2013-10-30 12:18:00,
2013-10-30 07:23:00,62.2,59.8,30.18,West,262,2.0,2.0,92,0.00,,,0.00,Wunderground v.1.15,2013-10-30 12:23:00,
2013-10-30 07:29:00,62.2,59.8,30.18,West,261,0.0,2.0,92,0.00,,,0.00,Wunderground v.1.15,2013-10-30 12:29:00,
2013-10-30 07:34:00,62.1,59.7,30.18,West,261,0.0,1.0,92,0.00,,,0.00,Wunderground v.1.15,2013-10-30 12:34:00,
2013-10-30 07:39:00,62.2,59.8,30.18,West,261,0.0,1.0,92,0.00,,,0.00,Wunderground v.1.15,2013-10-30 12:39:00,
2013-10-30 07:44:00,62.3,60.2,30.18,SW,219,0.0,3.0,93,0.00,,,0.00,Wunderground v.1.15,2013-10-30 12:44:00,
2013-10-30 07:50:00,62.6,60.5,30.18,WSW,246,1.0,2.0,93,0.00,,,0.00,Wunderground v.1.15,2013-10-30 12:50:00,
2013-10-30 07:55:00,62.9,60.5,30.18,SW,232,2.0,4.0,92,0.00,,,0.00,Wunderground v.1.15,2013-10-30 12:55:00,
2013-10-30 08:00:00,63.2,60.8,30.19,WSW,251,3.0,4.0,92,0.00,,,0.00,Wunderground v.1.15,2013-10-30 13:00:00,
2013-10-30 08:05:00,63.5,60.8,30.19,WSW,245,3.0,4.0,91,0.00,,,0.00,Wunderground v.1.15,2013-10-30 13:05:00,
2013-10-30 08:11:00,63.6,60.9,30.19,SW,235,2.0,5.0,91,0.00,,,0.00,Wunderground v.1.15,2013-10-30 13:11:00,
2013-10-30 08:16:00,63.8,61.1,30.19,SW,219,3.0,6.0,91,0.00,,,0.00,Wunderground v.1.15,2013-10-30 13:16:00,
2013-10-30 08:22:00,63.9,61.2,30.19,SW,229,3.0,4.0,91,0.00,,,0.00,Wunderground v.1.15,2013-10-30 13:22:00,
2013-10-30 08:27:00,64.1,61.4,30.19,WSW,248,3.0,4.0,91,0.00,,,0.00,Wunderground v.1.15,2013-10-30 13:27:00,
2013-10-30 08:32:00,64.5,61.8,30.19,SSW,202,3.0,4.0,91,0.00,,,0.00,Wunderground v.1.15,2013-10-30 13:32:00,
2013-10-30 08:38:00,65.2,61.9,30.19,SW,232,3.0,5.0,89,0.00,,,0.00,Wunderground v.1.15,2013-10-30 13:38:00,
2013-10-30 08:43:00,65.6,61.9,30.19,SW,228,5.0,5.0,88,0.00,,,0.00,Wunderground v.1.15,2013-10-30 13:43:00,
2013-10-30 08:49:00,65.8,62.1,30.19,SSW,211,5.0,6.0,88,0.00,,,0.00,Wunderground v.1.15,2013-10-30 13:49:00,
2013-10-30 08:54:00,65.9,61.9,30.19,SW,229,5.0,7.0,87,0.00,,,0.00,Wunderground v.1.15,2013-10-30 13:54:00,
2013-10-30 09:00:00,66.0,61.7,30.19,WSW,245,5.0,5.0,86,0.00,,,0.00,Wunderground v.1.15,2013-10-30 14:00:00,
2013-10-30 09:06:00,66.1,61.8,30.19,SW,223,4.0,7.0,86,0.00,,,0.00,Wunderground v.1.15,2013-10-30 14:06:00,
2013-10-30 09:12:00,66.8,62.5,30.19,WSW,250,5.0,6.0,86,0.00,,,0.00,Wunderground v.1.15,2013-10-30 14:12:00,
2013-10-30 09:17:00,67.6,62.3,30.19,SW,221,6.0,9.0,83,0.00,,,0.00,Wunderground v.1.15,2013-10-30 14:17:00,
2013-10-30 09:23:00,68.4,63.0,30.19,SW,236,7.0,10.0,83,0.00,,,0.00,Wunderground v.1.15,2013-10-30 14:23:00,
2013-10-30 09:28:00,69.1,63.0,30.19,SW,224,7.0,10.0,81,0.00,,,0.00,Wunderground v.1.15,2013-10-30 14:28:00,
2013-10-30 09:33:00,69.6,63.2,30.19,SW,222,6.0,7.0,80,0.00,,,0.00,Wunderground v.1.15,2013-10-30 14:33:00,
2013-10-30 09:39:00,70.3,63.1,30.19,WSW,246,6.0,12.0,78,0.00,,,0.00,Wunderground v.1.15,2013-10-30 14:39:00,
2013-10-30 09:46:00,70.8,62.9,30.19,SW,236,7.0,9.0,76,0.00,,,0.00,Wunderground v.1.15,2013-10-30 14:46:00,
2013-10-30 09:51:00,71.0,63.1,30.19,West,259,8.0,10.0,76,0.00,,,0.00,Wunderground v.1.15,2013-10-30 14:51:00,
2013-10-30 09:57:00,71.4,63.4,30.19,SW,225,8.0,10.0,76,0.00,,,0.00,Wunderground v.1.15,2013-10-30 14:57:00,
2013-10-30 10:03:00,71.9,63.5,30.18,SW,232,8.0,9.0,75,0.00,,,0.00,Wunderground v.1.15,2013-10-30 15:03:00,
2013-10-30 10:08:00,71.9,62.8,30.18,SSW,210,8.0,10.0,73,0.00,,,0.00,Wunderground v.1.15,2013-10-30 15:08:00,
2013-10-30 10:14:00,72.0,63.3,30.17,WSW,246,9.0,11.0,74,0.00,,,0.00,Wunderground v.1.15,2013-10-30 15:14:00,
2013-10-30 10:19:00,72.5,63.7,30.17,SW,227,8.0,11.0,74,0.00,,,0.00,Wunderground v.1.15,2013-10-30 15:19:00,
2013-10-30 10:24:00,72.5,63.4,30.17,WSW,250,8.0,11.0,73,0.00,,,0.00,Wunderground v.1.15,2013-10-30 15:24:00,
2013-10-30 10:30:00,72.7,63.5,30.17,SSW,201,8.0,8.0,73,0.00,,,0.00,Wunderground v.1.15,2013-10-30 15:30:00,
2013-10-30 10:36:00,73.3,63.7,30.17,SW,235,7.0,9.0,72,0.00,,,0.00,Wunderground v.1.15,2013-10-30 15:36:00,
2013-10-30 10:41:00,73.5,63.9,30.17,WSW,244,8.0,12.0,72,0.00,,,0.00,Wunderground v.1.15,2013-10-30 15:41:00,
2013-10-30 10:46:00,73.7,64.1,30.17,SW,231,9.0,12.0,72,0.00,,,0.00,Wunderground v.1.15,2013-10-30 15:46:00,
2013-10-30 10:51:00,73.8,63.8,30.17,WSW,243,9.0,9.0,71,0.00,,,0.00,Wunderground v.1.15,2013-10-30 15:51:00,
2013-10-30 10:57:00,74.3,64.7,30.17,SW,221,8.0,9.0,72,0.00,,,0.00,Wunderground v.1.15,2013-10-30 15:57:00,
2013-10-30 11:03:00,74.4,64.4,30.16,SW,232,9.0,10.0,71,0.00,,,0.00,Wunderground v.1.15,2013-10-30 16:03:00,
2013-10-30 11:08:00,74.7,64.7,30.16,WSW,253,8.0,10.0,71,0.00,,,0.00,Wunderground v.1.15,2013-10-30 16:08:00,
2013-10-30 11:14:00,75.1,64.6,30.16,SSW,212,8.0,13.0,70,0.00,,,0.00,Wunderground v.1.15,2013-10-30 16:14:00,
2013-10-30 11:19:00,75.1,64.6,30.15,SW,228,8.0,13.0,70,0.00,,,0.00,Wunderground v.1.15,2013-10-30 16:19:00,
2013-10-30 11:24:00,75.4,64.9,30.15,WSW,252,8.0,9.0,70,0.00,,,0.00,Wunderground v.1.15,2013-10-30 16:24:00,
2013-10-30 11:30:00,76.0,65.1,30.15,WSW,238,8.0,9.0,69,0.00,,,0.00,Wunderground v.1.15,2013-10-30 16:30:00,
2013-10-30 11:35:00,76.3,65.4,30.15,SW,229,8.0,9.0,69,0.00,,,0.00,Wunderground v.1.15,2013-10-30 16:35:00,
2013-10-30 11:40:00,75.9,65.0,30.15,WSW,248,9.0,9.0,69,0.00,,,0.00,Wunderground v.1.15,2013-10-30 16:40:00,
2013-10-30 11:46:00,75.7,65.2,30.15,SSW,202,9.0,10.0,70,0.00,,,0.00,Wunderground v.1.15,2013-10-30 16:46:00,
2013-10-30 11:52:00,75.5,65.0,30.15,SW,233,9.0,9.0,70,0.00,,,0.00,Wunderground v.1.15,2013-10-30 16:52:00,
2013-10-30 11:58:00,75.7,65.2,30.14,SW,222,8.0,10.0,70,0.00,,,0.00,Wunderground v.1.15,2013-10-30 16:58:00,
2013-10-30 12:03:00,76.1,65.2,30.14,WSW,250,8.0,11.0,69,0.00,,,0.00,Wunderground v.1.15,2013-10-30 17:03:00,
2013-10-30 12:08:00,75.5,65.0,30.14,WSW,246,9.0,11.0,70,0.00,,,0.00,Wunderground v.1.15,2013-10-30 17:08:00,
2013-10-30 12:13:00,75.6,65.1,30.13,WSW,257,9.0,10.0,70,0.00,,,0.00,Wunderground v.1.15,2013-10-30 17:13:00,
2013-10-30 12:18:00,76.0,65.1,30.13,WSW,255,9.0,11.0,69,0.00,,,0.00,Wunderground v.1.15,2013-10-30 17:18:00,
2013-10-30 12:23:00,75.7,65.2,30.13,WSW,243,9.0,12.0,70,0.00,,,0.00,Wunderground v.1.15,2013-10-30 17:23:00,
2013-10-30 12:29:00,76.4,65.9,30.13,WSW,248,9.0,12.0,70,0.00,,,0.00,Wunderground v.1.15,2013-10-30 17:29:00,
2013-10-30 12:34:00,77.2,65.4,30.13,WSW,238,9.0,11.0,67,0.00,,,0.00,Wunderground v.1.15,2013-10-30 17:34:00,
2013-10-30 12:39:00,77.0,65.6,30.13,WSW,254,8.0,11.0,68,0.00,,,0.00,Wunderground v.1.15,2013-10-30 17:39:00,
2013-10-30 12:45:00,76.7,65.3,30.13,WSW,255,10.0,14.0,68,0.00,,,0.00,Wunderground v.1.15,2013-10-30 17:45:00,
2013-10-30 12:50:00,75.8,65.3,30.12,WSW,238,9.0,9.0,70,0.00,,,0.00,Wunderground v.1.15,2013-10-30 17:50:00,
2013-10-30 12:55:00,75.3,65.2,30.12,WSW,246,7.0,13.0,71,0.00,,,0.00,Wunderground v.1.15,2013-10-30 17:55:00,
2013-10-30 13:01:00,76.2,65.7,30.12,SSW,205,8.0,9.0,70,0.00,,,0.00,Wunderground v.1.15,2013-10-30 18:01:00,
2013-10-30 13:06:00,76.1,65.6,30.12,SW,215,7.0,11.0,70,0.00,,,0.00,Wunderground v.1.15,2013-10-30 18:06:00,
2013-10-30 13:11:00,76.0,65.1,30.12,WSW,246,7.0,9.0,69,0.00,,,0.00,Wunderground v.1.15,2013-10-30 18:11:00,
2013-10-30 13:16:00,75.8,65.7,30.11,SW,218,8.0,9.0,71,0.00,,,0.00,Wunderground v.1.15,2013-10-30 18:16:00,
2013-10-30 13:22:00,75.9,65.8,30.11,WSW,246,7.0,9.0,71,0.00,,,0.00,Wunderground v.1.15,2013-10-30 18:22:00,
2013-10-30 13:27:00,76.0,65.9,30.11,WSW,254,7.0,11.0,71,0.00,,,0.00,Wunderground v.1.15,2013-10-30 18:27:00,
2013-10-30 13:32:00,76.3,66.2,30.10,SW,220,8.0,10.0,71,0.00,,,0.00,Wunderground v.1.15,2013-10-30 18:32:00,
2013-10-30 13:37:00,76.1,65.2,30.10,SSW,210,7.0,10.0,69,0.00,,,0.00,Wunderground v.1.15,2013-10-30 18:37:00,
2013-10-30 13:42:00,75.6,65.1,30.10,SSW,205,7.0,11.0,70,0.00,,,0.00,Wunderground v.1.15,2013-10-30 18:42:00,
2013-10-30 13:47:00,75.4,65.3,30.09,SW,225,8.0,11.0,71,0.00,,,0.00,Wunderground v.1.15,2013-10-30 18:47:00,
2013-10-30 13:52:00,75.6,65.5,30.09,WSW,240,6.0,9.0,71,0.00,,,0.00,Wunderground v.1.15,2013-10-30 18:52:00,
2013-10-30 13:58:00,75.3,65.2,30.09,WSW,240,5.0,10.0,71,0.00,,,0.00,Wunderground v.1.15,2013-10-30 18:58:00,
2013-10-30 14:04:00,74.8,64.8,30.09,SW,228,7.0,9.0,71,0.00,,,0.00,Wunderground v.1.15,2013-10-30 19:04:00,
2013-10-30 14:10:00,74.6,65.0,30.09,WSW,244,7.0,10.0,72,0.00,,,0.00,Wunderground v.1.15,2013-10-30 19:10:00,
2013-10-30 14:15:00,74.9,64.9,30.08,WSW,244,8.0,9.0,71,0.00,,,0.00,Wunderground v.1.15,2013-10-30 19:15:00,
2013-10-30 14:20:00,75.8,65.7,30.08,WSW,248,8.0,10.0,71,0.00,,,0.00,Wunderground v.1.15,2013-10-30 19:20:00,
2013-10-30 14:25:00,76.9,66.0,30.08,WSW,241,8.0,10.0,69,0.00,,,0.00,Wunderground v.1.15,2013-10-30 19:25:00,
2013-10-30 14:30:00,76.7,65.3,30.08,WSW,252,9.0,10.0,68,0.00,,,0.00,Wunderground v.1.15,2013-10-30 19:30:00,
2013-10-30 14:35:00,76.5,65.1,30.08,SW,235,9.0,12.0,68,0.00,,,0.00,Wunderground v.1.15,2013-10-30 19:35:00,
2013-10-30 14:40:00,75.5,65.0,30.08,SW,231,8.0,12.0,70,0.00,,,0.00,Wunderground v.1.15,2013-10-30 19:40:00,
2013-10-30 14:46:00,75.5,65.8,30.07,SW,217,8.0,12.0,72,0.00,,,0.00,Wunderground v.1.15,2013-10-30 19:46:00,
2013-10-30 14:51:00,76.3,65.0,30.07,West,270,8.0,8.0,68,0.00,,,0.00,Wunderground v.1.15,2013-10-30 19:51:00,
2013-10-30 14:56:00,76.4,65.9,30.07,SW,228,7.0,8.0,70,0.00,,,0.00,Wunderground v.1.15,2013-10-30 19:56:00,
2013-10-30 15:01:00,77.3,65.5,30.07,South,190,7.0,10.0,67,0.00,,,0.00,Wunderground v.1.15,2013-10-30 20:01:00,
2013-10-30 15:07:00,77.1,65.3,30.07,SSW,192,8.0,10.0,67,0.00,,,0.00,Wunderground v.1.15,2013-10-30 20:07:00,
2013-10-30 15:12:00,76.9,65.1,30.07,SSW,209,8.0,15.0,67,0.00,,,0.00,Wunderground v.1.15,2013-10-30 20:12:00,
2013-10-30 15:18:00,75.7,64.0,30.07,SW,228,8.0,15.0,67,0.00,,,0.00,Wunderground v.1.15,2013-10-30 20:18:00,
2013-10-30 15:23:00,74.8,63.9,30.07,SW,230,7.0,9.0,69,0.00,,,0.00,Wunderground v.1.15,2013-10-30 20:23:00,
2013-10-30 15:29:00,74.4,64.0,30.07,WSW,257,7.0,10.0,70,0.00,,,0.00,Wunderground v.1.15,2013-10-30 20:29:00,
2013-10-30 15:34:00,74.2,64.2,30.07,SSW,212,7.0,9.0,71,0.00,,,0.00,Wunderground v.1.15,2013-10-30 20:34:00,
2013-10-30 15:39:00,74.5,64.5,30.06,SSW,212,5.0,9.0,71,0.00,,,0.00,Wunderground v.1.15,2013-10-30 20:39:00,
2013-10-30 15:44:00,74.6,64.6,30.06,WSW,245,5.0,8.0,71,0.00,,,0.00,Wunderground v.1.15,2013-10-30 20:44:00,
2013-10-30 15:49:00,74.1,64.1,30.06,SSW,202,5.0,8.0,71,0.00,,,0.00,Wunderground v.1.15,2013-10-30 20:49:00,
2013-10-30 15:55:00,73.7,63.7,30.06,SW,221,5.0,8.0,71,0.00,,,0.00,Wunderground v.1.15,2013-10-30 20:55:00,
2013-10-30 16:00:00,73.5,63.9,30.06,SW,221,5.0,5.0,72,0.00,,,0.00,Wunderground v.1.15,2013-10-30 21:00:00,
2013-10-30 16:06:00,73.5,63.9,30.06,SW,235,5.0,6.0,72,0.00,,,0.00,Wunderground v.1.15,2013-10-30 21:06:00,
2013-10-30 16:11:00,73.4,63.8,30.06,South,190,5.0,6.0,72,0.00,,,0.00,Wunderground v.1.15,2013-10-30 21:11:00,
2013-10-30 16:16:00,73.4,64.2,30.06,SW,221,4.0,6.0,73,0.00,,,0.00,Wunderground v.1.15,2013-10-30 21:16:00,
2013-10-30 16:21:00,73.4,63.8,30.06,SW,230,5.0,7.0,72,0.00,,,0.00,Wunderground v.1.15,2013-10-30 21:21:00,
2013-10-30 16:26:00,73.4,63.4,30.06,SSW,199,5.0,7.0,71,0.00,,,0.00,Wunderground v.1.15,2013-10-30 21:26:00,
2013-10-30 16:32:00,73.3,63.3,30.06,SW,229,4.0,6.0,71,0.00,,,0.00,Wunderground v.1.15,2013-10-30 21:32:00,
2013-10-30 16:37:00,73.2,63.2,30.06,SW,226,4.0,6.0,71,0.00,,,0.00,Wunderground v.1.15,2013-10-30 21:37:00,
2013-10-30 16:42:00,73.1,63.1,30.06,SW,225,4.0,5.0,71,0.00,,,0.00,Wunderground v.1.15,2013-10-30 21:42:00,
2013-10-30 16:47:00,73.2,63.6,30.06,SW,217,4.0,5.0,72,0.00,,,0.00,Wunderground v.1.15,2013-10-30 21:47:00,
2013-10-30 16:53:00,73.2,63.2,30.06,SW,223,4.0,4.0,71,0.00,,,0.00,Wunderground v.1.15,2013-10-30 21:53:00,
2013-10-30 16:58:00,73.2,63.6,30.06,SW,236,3.0,4.0,72,0.00,,,0.00,Wunderground v.1.15,2013-10-30 21:58:00,
2013-10-30 17:03:00,73.0,63.4,30.06,SSW,213,3.0,7.0,72,0.00,,,0.00,Wunderground v.1.15,2013-10-30 22:03:00,
2013-10-30 17:08:00,72.8,63.2,30.06,SW,219,3.0,7.0,72,0.00,,,0.00,Wunderground v.1.15,2013-10-30 22:08:00,
2013-10-30 17:13:00,72.6,62.7,30.06,SW,227,3.0,7.0,71,0.00,,,0.00,Wunderground v.1.15,2013-10-30 22:13:00,
2013-10-30 17:19:00,72.3,62.4,30.06,SSW,209,3.0,7.0,71,0.00,,,0.00,Wunderground v.1.15,2013-10-30 22:19:00,
2013-10-30 17:24:00,72.1,61.8,30.06,SW,217,3.0,7.0,70,0.00,,,0.00,Wunderground v.1.15,2013-10-30 22:24:00,
2013-10-30 17:29:00,71.8,61.5,30.06,WSW,246,4.0,7.0,70,0.00,,,0.00,Wunderground v.1.15,2013-10-30 22:29:00,
2013-10-30 17:34:00,71.6,61.3,30.06,SW,227,3.0,7.0,70,0.00,,,0.00,Wunderground v.1.15,2013-10-30 22:34:00,
2013-10-30 17:39:00,71.4,61.5,30.06,WSW,248,3.0,7.0,71,0.00,,,0.00,Wunderground v.1.15,2013-10-30 22:39:00,
2013-10-30 17:45:00,71.1,61.2,30.06,SW,216,3.0,5.0,71,0.00,,,0.00,Wunderground v.1.15,2013-10-30 22:45:00,
2013-10-30 17:51:00,70.7,61.2,30.06,SW,217,2.0,2.0,72,0.00,,,0.00,Wunderground v.1.15,2013-10-30 22:51:00,
2013-10-30 17:56:00,70.3,60.8,30.06,SW,214,1.0,2.0,72,0.00,,,0.00,Wunderground v.1.15,2013-10-30 22:56:00,
2013-10-30 18:02:00,69.9,60.8,30.06,SW,214,0.0,0.0,73,0.00,,,0.00,Wunderground v.1.15,2013-10-30 23:02:00,
2013-10-30 18:09:00,69.5,60.5,30.06,SW,214,0.0,0.0,73,0.00,,,0.00,Wunderground v.1.15,2013-10-30 23:09:00,
2013-10-30 18:14:00,69.3,60.7,30.06,SW,214,0.0,0.0,74,0.00,,,0.00,Wunderground v.1.15,2013-10-30 23:14:00,
2013-10-30 18:19:00,69.2,60.6,30.06,SW,214,0.0,0.0,74,0.00,,,0.00,Wunderground v.1.15,2013-10-30 23:19:00,
2013-10-30 18:24:00,69.0,60.7,30.05,SW,214,0.0,0.0,75,0.00,,,0.00,Wunderground v.1.15,2013-10-30 23:24:00,
2013-10-30 18:30:00,68.6,60.4,30.05,SW,214,0.0,0.0,75,0.00,,,0.00,Wunderground v.1.15,2013-10-30 23:30:00,
2013-10-30 18:36:00,68.2,60.3,30.05,SW,214,0.0,0.0,76,0.00,,,0.00,Wunderground v.1.15,2013-10-30 23:36:00,
2013-10-30 18:41:00,67.9,60.1,30.05,SW,214,0.0,0.0,76,0.00,,,0.00,Wunderground v.1.15,2013-10-30 23:41:00,
2013-10-30 18:46:00,67.7,60.2,30.05,SW,214,0.0,0.0,77,0.00,,,0.00,Wunderground v.1.15,2013-10-30 23:46:00,
2013-10-30 18:52:00,67.6,60.5,30.05,SW,214,0.0,0.0,78,0.00,,,0.00,Wunderground v.1.15,2013-10-30 23:52:00,
2013-10-30 18:57:00,67.4,60.3,30.05,SW,214,0.0,0.0,78,0.00,,,0.00,Wunderground v.1.15,2013-10-30 23:57:00,
2013-10-30 19:03:00,67.2,60.5,30.05,SW,214,0.0,0.0,79,0.00,,,0.00,Wunderground v.1.15,2013-10-31 00:03:00,
2013-10-30 19:08:00,66.9,59.8,30.05,SW,214,0.0,0.0,78,0.00,,,0.00,Wunderground v.1.15,2013-10-31 00:08:00,
2013-10-30 19:14:00,66.1,59.4,30.05,SSW,213,0.0,0.0,79,0.00,,,0.00,Wunderground v.1.15,2013-10-31 00:14:00,
2013-10-30 19:20:00,65.3,59.3,30.04,ENE,63,0.0,1.0,81,0.00,,,0.00,Wunderground v.1.15,2013-10-31 00:20:00,
2013-10-30 19:25:00,65.0,59.7,30.04,ENE,63,1.0,2.0,83,0.00,,,0.00,Wunderground v.1.15,2013-10-31 00:25:00,
2013-10-30 19:30:00,65.2,59.9,30.05,ENE,63,1.0,1.0,83,0.00,,,0.00,Wunderground v.1.15,2013-10-31 00:30:00,
2013-10-30 19:35:00,65.5,59.9,30.05,ENE,63,0.0,1.0,82,0.00,,,0.00,Wunderground v.1.15,2013-10-31 00:35:00,
2013-10-30 19:40:00,65.6,60.0,30.05,ENE,63,0.0,0.0,82,0.00,,,0.00,Wunderground v.1.15,2013-10-31 00:40:00,
2013-10-30 19:46:00,65.6,60.0,30.05,ENE,63,0.0,1.0,82,0.00,,,0.00,Wunderground v.1.15,2013-10-31 00:46:00,
2013-10-30 19:50:00,65.6,60.0,30.05,ENE,63,0.0,0.0,82,0.00,,,0.00,Wunderground v.1.15,2013-10-31 00:50:00,
2013-10-30 19:56:00,65.5,59.9,30.05,ENE,63,0.0,1.0,82,0.00,,,0.00,Wunderground v.1.15,2013-10-31 00:56:00,
2013-10-30 20:01:00,65.5,59.9,30.05,ENE,63,0.0,0.0,82,0.00,,,0.00,Wunderground v.1.15,2013-10-31 01:01:00,
2013-10-30 20:06:00,65.5,59.9,30.06,ENE,63,0.0,0.0,82,0.00,,,0.00,Wunderground v.1.15,2013-10-31 01:06:00,
2013-10-30 20:11:00,65.4,60.1,30.05,ENE,63,0.0,0.0,83,0.00,,,0.00,Wunderground v.1.15,2013-10-31 01:11:00,
2013-10-30 20:16:00,65.2,59.9,30.05,ENE,63,0.0,0.0,83,0.00,,,0.00,Wunderground v.1.15,2013-10-31 01:16:00,
2013-10-30 20:22:00,65.1,59.8,30.05,ENE,63,0.0,0.0,83,0.00,,,0.00,Wunderground v.1.15,2013-10-31 01:22:00,
2013-10-30 20:28:00,65.5,60.2,30.05,SSE,165,1.0,1.0,83,0.00,,,0.00,Wunderground v.1.15,2013-10-31 01:28:00,
2013-10-30 20:34:00,65.8,60.5,30.05,South,184,0.0,1.0,83,0.00,,,0.00,Wunderground v.1.15,2013-10-31 01:34:00,
2013-10-30 20:39:00,65.9,60.6,30.05,SSE,164,0.0,2.0,83,0.00,,,0.00,Wunderground v.1.15,2013-10-31 01:39:00,
2013-10-30 20:44:00,65.9,60.6,30.05,South,170,0.0,2.0,83,0.00,,,0.00,Wunderground v.1.15,2013-10-31 01:44:00,
2013-10-30 20:50:00,66.1,60.8,30.04,SSE,168,0.0,0.0,83,0.00,,,0.00,Wunderground v.1.15,2013-10-31 01:50:00,
2013-10-30 20:55:00,66.2,60.5,30.04,SSE,162,0.0,3.0,82,0.00,,,0.00,Wunderground v.1.15,2013-10-31 01:55:00,
2013-10-30 21:00:00,66.3,60.6,30.04,South,190,1.0,1.0,82,0.00,,,0.00,Wunderground v.1.15,2013-10-31 02:00:00,
2013-10-30 21:05:00,66.2,60.5,30.04,SSW,192,1.0,3.0,82,0.00,,,0.00,Wunderground v.1.15,2013-10-31 02:05:00,
2013-10-30 21:11:00,66.1,60.4,30.04,SW,223,1.0,3.0,82,0.00,,,0.00,Wunderground v.1.15,2013-10-31 02:11:00,
2013-10-30 21:17:00,66.1,60.4,30.04,South,185,1.0,3.0,82,0.00,,,0.00,Wunderground v.1.15,2013-10-31 02:17:00,
2013-10-30 21:22:00,66.1,60.4,30.04,SSE,165,1.0,2.0,82,0.00,,,0.00,Wunderground v.1.15,2013-10-31 02:22:00,
2013-10-30 21:28:00,66.1,60.1,30.05,SSE,155,1.0,3.0,81,0.00,,,0.00,Wunderground v.1.15,2013-10-31 02:28:00,
2013-10-30 21:33:00,66.5,60.1,30.04,SSE,162,2.0,3.0,80,0.00,,,0.00,Wunderground v.1.15,2013-10-31 02:33:00,
2013-10-30 21:38:00,66.7,60.3,30.04,South,177,3.0,3.0,80,0.00,,,0.00,Wunderground v.1.15,2013-10-31 02:38:00,
2013-10-30 21:44:00,66.9,59.8,30.05,South,184,3.0,6.0,78,0.00,,,0.00,Wunderground v.1.15,2013-10-31 02:44:00,
2013-10-30 21:49:00,67.0,59.5,30.05,South,178,4.0,6.0,77,0.00,,,0.00,Wunderground v.1.15,2013-10-31 02:49:00,
2013-10-30 21:54:00,67.0,59.5,30.05,SSW,200,4.0,4.0,77,0.00,,,0.00,Wunderground v.1.15,2013-10-31 02:54:00,
2013-10-30 22:00:00,67.0,59.5,30.05,SW,217,4.0,5.0,77,0.00,,,0.00,Wunderground v.1.15,2013-10-31 03:00:00,
2013-10-30 22:01:00,67.0,59.2,30.05,SW,214,4.0,5.0,76,0.00,,,0.00,Wunderground v.1.15,2013-10-31 03:01:00,
2013-10-30 22:06:00,67.0,59.2,30.05,SSW,201,4.0,6.0,76,0.00,,,0.00,Wunderground v.1.15,2013-10-31 03:06:00,
2013-10-30 22:12:00,67.1,59.3,30.05,SSW,196,3.0,4.0,76,0.00,,,0.00,Wunderground v.1.15,2013-10-31 03:12:00,
2013-10-30 22:21:00,67.1,58.9,30.05,SSW,208,3.0,3.0,75,0.00,,,0.00,Wunderground v.1.15,2013-10-31 03:21:00,
2013-10-30 22:27:00,66.9,59.1,30.04,South,187,3.0,3.0,76,0.00,,,0.00,Wunderground v.1.15,2013-10-31 03:27:00,
2013-10-30 22:32:00,66.9,58.7,30.04,South,178,2.0,4.0,75,0.00,,,0.00,Wunderground v.1.15,2013-10-31 03:32:00,
2013-10-30 22:37:00,67.0,58.8,30.04,South,174,2.0,4.0,75,0.00,,,0.00,Wunderground v.1.15,2013-10-31 03:37:00,
2013-10-30 22:43:00,67.0,58.8,30.04,SSW,202,3.0,5.0,75,0.00,,,0.00,Wunderground v.1.15,2013-10-31 03:43:00,
2013-10-30 22:48:00,67.0,58.8,30.04,South,180,3.0,5.0,75,0.00,,,0.00,Wunderground v.1.15,2013-10-31 03:48:00,
2013-10-30 22:53:00,66.8,58.6,30.04,South,182,3.0,3.0,75,0.00,,,0.00,Wunderground v.1.15,2013-10-31 03:53:00,
2013-10-30 22:58:00,66.7,58.5,30.04,South,184,2.0,3.0,75,0.00,,,0.00,Wunderground v.1.15,2013-10-31 03:58:00,
2013-10-30 23:02:00,66.6,58.4,30.04,SSW,194,3.0,4.0,75,0.00,,,0.00,Wunderground v.1.15,2013-10-31 04:02:00,
2013-10-30 23:03:00,66.6,58.4,30.04,SSW,196,3.0,4.0,75,0.00,,,0.00,Wunderground v.1.15,2013-10-31 04:03:00,
2013-10-30 23:05:00,66.6,58.4,30.04,SW,235,3.0,4.0,75,0.00,,,0.00,Wunderground v.1.15,2013-10-31 04:05:00,
2013-10-30 23:06:00,66.7,58.5,30.04,SSW,196,3.0,5.0,75,0.00,,,0.00,Wunderground v.1.15,2013-10-31 04:06:00,
2013-10-30 23:07:00,66.7,58.5,30.04,South,178,3.0,5.0,75,0.00,,,0.00,Wunderground v.1.15,2013-10-31 04:07:00,
2013-10-30 23:12:00,66.7,58.5,30.03,SW,232,3.0,3.0,75,0.00,,,0.00,Wunderground v.1.15,2013-10-31 04:12:00,
2013-10-30 23:18:00,66.6,58.4,30.03,SSE,168,3.0,4.0,75,0.00,,,0.00,Wunderground v.1.15,2013-10-31 04:18:00,
2013-10-30 23:24:00,66.6,58.4,30.03,South,177,3.0,5.0,75,0.00,,,0.00,Wunderground v.1.15,2013-10-31 04:24:00,
2013-10-30 23:27:00,66.6,58.4,30.03,SW,226,3.0,5.0,75,0.00,,,0.00,Wunderground v.1.15,2013-10-31 04:27:00,
2013-10-30 23:32:00,66.5,58.7,30.03,SW,236,3.0,4.0,76,0.00,,,0.00,Wunderground v.1.15,2013-10-31 04:32:00,
2013-10-30 23:38:00,66.5,58.7,30.04,South,181,3.0,6.0,76,0.00,,,0.00,Wunderground v.1.15,2013-10-31 04:38:00,
2013-10-30 23:43:00,66.5,58.7,30.03,South,184,3.0,3.0,76,0.00,,,0.00,Wunderground v.1.15,2013-10-31 04:43:00,
2013-10-30 23:49:00,66.4,58.2,30.02,South,180,3.0,7.0,75,0.00,,,0.00,Wunderground v.1.15,2013-10-31 04:49:00,
2013-10-30 23:55:00,66.5,58.3,30.02,SSW,192,4.0,5.0,75,0.00,,,0.00,Wunderground v.1.15,2013-10-31 04:55:00,